Stations météo

réclame
Mon MeteoGroup
Santiago de Compostela/Labacolla, Espagne (8042): Température de l'air & dewpoint: 13.01.2020 21:00:00 - 19.01.2020 21:00:00 (CET)Santiago de Compostela/Labacolla, Espagne (8042): Vitesse du vent: 13.01.2020 21:00:00 - 19.01.2020 21:00:00 (CET)Santiago de Compostela/Labacolla, Espagne (8042): Direction du vent: 13.01.2020 21:00:00 - 19.01.2020 21:00:00 (CET)Santiago de Compostela/Labacolla, Espagne (8042): reduced air pressure: 13.01.2020 21:00:00 - 19.01.2020 21:00:00 (CET)Santiago de Compostela/Labacolla, Espagne (8042): visibility: 13.01.2020 21:00:00 - 19.01.2020 21:00:00 (CET)
Date & Time tt [°C] td [°C] ff [km/h] ff [knt] dd ppp [hPa] vv [km]
19.01.2020 21:00:00 - - - - - - -
19.01.2020 20:00:00 5,3 -0,1 11 6 NE 1036,3 30
19.01.2020 19:00:00 5,8 0,3 11 6 NE 1035,7 30
19.01.2020 18:00:00 7,1 0,9 11 6 NE 1035,0 30
19.01.2020 17:00:00 8,5 1,2 15 8 ENE 1034,6 30
19.01.2020 16:00:00 9,4 1,2 13 7 ENE 1034,1 40
19.01.2020 15:00:00 9,9 1,9 11 6 NE 1033,6 30
19.01.2020 14:00:00 9,6 2,6 15 8 NE 1034,3 40
19.01.2020 13:00:00 9,2 2,9 16 9 ENE 1034,8 40
19.01.2020 12:00:00 8,9 3,9 15 8 ENE 1034,7 21
19.01.2020 11:00:00 7,7 3,4 11 6 NE 1034,2 29
19.01.2020 10:00:00 6,5 3,1 11 6 NE 1033,9 30
19.01.2020 09:00:00 6,1 3,0 9 5 NE 1032,8 21
19.01.2020 08:00:00 6,8 4,8 8 4 NNE 1031,5 25
19.01.2020 07:00:00 7,1 4,7 13 7 NNE 1030,4 20
19.01.2020 06:00:00 7,3 5,9 13 7 NNE 1029,5 29
19.01.2020 05:00:00 7,5 6,3 15 8 NNE 1028,9 30
19.01.2020 04:00:00 7,8 7,2 13 7 NNE 1028,2 20
19.01.2020 03:00:00 8,0 7,2 15 8 N 1027,5 23
19.01.2020 02:00:00 7,6 7,5 22 12 N 1027,1 3,6
19.01.2020 01:00:00 7,5 7,2 18 10 N 1026,8 7
19.01.2020 00:00:00 7,6 6,8 16 9 N 1025,8 13
18.01.2020 23:00:00 7,9 7,6 16 9 N 1024,9 17
18.01.2020 22:00:00 8,0 8,0 11 6 N 1023,7 7
18.01.2020 21:00:00 8,0 8,0 4 2 SSE 1022,9 6
18.01.2020 20:00:00 8,1 7,8 15 8 W 1022,3 3,6
18.01.2020 19:00:00 8,0 7,6 11 6 WSW 1021,9 5
18.01.2020 18:00:00 8,5 7,6 13 7 WSW 1021,6 8
18.01.2020 17:00:00 9,1 7,7 15 8 W 1021,6 11
18.01.2020 16:00:00 10,2 7,0 15 8 W 1021,2 20
18.01.2020 15:00:00 10,5 7,7 22 12 W 1021,2 12
18.01.2020 14:00:00 10,1 9,0 22 12 W 1021,1 4,0
18.01.2020 13:00:00 12,2 10,4 28 15 W 1020,6 30
18.01.2020 12:00:00 11,8 11,5 21 11 WSW 1020,4 30
18.01.2020 11:00:00 10,8 10,6 21 11 SSW 1020,3 15
18.01.2020 10:00:00 10,6 9,7 15 8 SSW 1020,1 25
18.01.2020 09:00:00 7,7 7,3 13 7 S 1020,9 30
18.01.2020 08:00:00 7,7 6,6 11 6 SSE 1021,6 20
18.01.2020 07:00:00 7,9 5,5 9 5 SE 1021,9 20
18.01.2020 06:00:00 7,2 4,7 11 6 SSE 1022,7 10
18.01.2020 05:00:00 7,2 4,0 9 5 SSE 1023,4 30
18.01.2020 04:00:00 7,0 3,8 9 5 SE 1024,6 30
18.01.2020 03:00:00 6,7 4,2 11 6 SSE 1025,7 30
18.01.2020 02:00:00 6,5 4,5 5 3 SE 1026,9 30
18.01.2020 01:00:00 6,4 5,2 5 3 S 1028,5 25
18.01.2020 00:00:00 6,4 5,2 5 3 S 1029,6 28
17.01.2020 23:00:00 6,4 5,1 4 2 SE 1030,3 30
17.01.2020 22:00:00 6,2 5,6 5 3 ESE 1030,6 30
17.01.2020 21:00:00 6,7 5,6 0 0 N 1031,1 24
17.01.2020 20:00:00 6,9 5,8 4 2 SSE 1031,1 24
17.01.2020 19:00:00 7,2 6,0 5 3 SSW 1031,7 30
17.01.2020 18:00:00 7,4 6,0 4 2 S 1031,6 27
17.01.2020 17:00:00 8,3 5,7 8 4 SSW 1031,6 28
17.01.2020 16:00:00 8,6 5,6 5 3 S 1031,5 30
17.01.2020 15:00:00 8,9 5,4 11 6 WSW 1031,6 30
17.01.2020 14:00:00 8,6 5,5 11 6 WSW 1032,0 30
17.01.2020 13:00:00 8,4 5,1 11 6 W 1032,1 30
17.01.2020 12:00:00 7,5 5,2 9 5 S 1032,3 30
17.01.2020 11:00:00 6,2 5,6 9 5 S 1031,7 22
17.01.2020 10:00:00 6,8 4,7 9 5 WSW 1030,9 15
17.01.2020 09:00:00 5,7 3,7 9 5 WSW 1030,1 30
17.01.2020 08:00:00 5,7 3,9 9 5 SW 1029,2 30
17.01.2020 07:00:00 5,4 4,2 8 4 WSW 1028,7 15
17.01.2020 06:00:00 6,8 5,3 11 6 SW 1026,9 17
17.01.2020 05:00:00 6,3 5,9 11 6 SW 1025,7 16
17.01.2020 04:00:00 6,5 6,1 13 7 SSW 1025,4 20
17.01.2020 03:00:00 6,7 6,1 11 6 SSW 1024,7 18
17.01.2020 02:00:00 7,5 6,3 13 7 SW 1023,7 30
17.01.2020 01:00:00 8,1 6,6 16 9 WSW 1023,0 9
17.01.2020 00:00:00 9,1 8,2 13 7 WSW 1022,0 14
16.01.2020 23:00:00 8,6 7,0 22 12 WSW 1021,2 30
16.01.2020 22:00:00 8,8 8,8 11 6 SSW 1020,7 9
16.01.2020 21:00:00 8,7 8,7 13 7 SSW 1020,2 13
16.01.2020 20:00:00 8,8 8,5 18 10 SW 1019,7 15
16.01.2020 19:00:00 8,8 8,5 15 8 SW 1018,1 20
16.01.2020 18:00:00 8,1 8,1 13 7 S 1016,7 30
16.01.2020 17:00:00 8,3 7,2 16 9 SW 1016,3 7
16.01.2020 16:00:00 10,9 10,4 22 12 S 1014,1 4,0
16.01.2020 15:00:00 10,0 9,7 26 14 SW 1015,0 -
16.01.2020 14:00:00 9,5 9,4 29 16 SW 1016,3 4,9
16.01.2020 13:00:00 11,7 11,2 28 15 SSW 1016,0 3,0
16.01.2020 12:00:00 12,1 11,2 34 18 S 1015,8 9
16.01.2020 11:00:00 12,3 11,5 28 15 S 1015,7 9
16.01.2020 10:00:00 13,0 10,7 37 20 S 1015,5 7
16.01.2020 09:00:00 13,2 10,7 41 22 S 1015,5 25
16.01.2020 08:00:00 13,0 10,7 37 20 S 1015,3 20
16.01.2020 07:00:00 13,0 10,9 31 17 S 1015,3 15
16.01.2020 06:00:00 12,9 11,1 39 21 S 1015,6 25
16.01.2020 05:00:00 12,5 11,7 34 18 S 1016,1 8
16.01.2020 04:00:00 12,8 11,9 34 18 SSW 1016,7 8
16.01.2020 03:00:00 12,1 11,8 22 12 S 1016,6 8
16.01.2020 02:00:00 12,4 10,5 22 12 S 1017,1 12
16.01.2020 01:00:00 12,0 8,5 24 13 S 1018,5 30
16.01.2020 00:00:00 12,6 8,3 35 19 SSW 1018,5 30
15.01.2020 23:00:00 12,5 10,6 28 15 S 1018,2 30
15.01.2020 22:00:00 11,1 9,4 11 6 SSE 1018,5 15
15.01.2020 21:00:00 10,5 8,6 8 4 S 1019,0 2,9
15.01.2020 20:00:00 9,8 8,2 8 4 SSE 1019,3 4,3
15.01.2020 19:00:00 9,2 7,9 5 3 S 1019,5 20
15.01.2020 18:00:00 10,8 8,0 9 5 SSW 1019,3 8
15.01.2020 17:00:00 11,6 8,0 15 8 S 1019,1 12
15.01.2020 16:00:00 11,7 7,9 13 7 SSW 1019,0 40
15.01.2020 15:00:00 12,0 7,7 13 7 SSW 1018,8 30
15.01.2020 14:00:00 11,0 7,3 9 5 SW 1019,2 30
15.01.2020 13:00:00 10,1 6,8 9 5 S 1019,6 29
15.01.2020 12:00:00 10,8 7,3 9 5 S 1019,5 30
15.01.2020 11:00:00 9,6 7,2 8 4 WSW 1019,4 30
15.01.2020 10:00:00 7,8 7,4 8 4 SW 1018,4 30
15.01.2020 09:00:00 7,8 7,1 8 4 SW 1017,1 30
15.01.2020 08:00:00 8,2 7,8 8 4 NNW 1015,1 30
15.01.2020 07:00:00 9,4 8,8 15 8 WNW 1013,1 25
15.01.2020 06:00:00 10,8 10,0 22 12 SW 1011,0 6
15.01.2020 05:00:00 11,1 10,5 28 15 SW 1010,0 20
15.01.2020 04:00:00 10,3 10,1 18 10 SSW 1010,0 4,0
15.01.2020 03:00:00 11,4 10,3 35 19 S 1009,1 7
15.01.2020 02:00:00 12,4 9,1 42 23 S 1009,3 30
15.01.2020 01:00:00 12,2 10,0 34 18 SSW 1010,1 15
15.01.2020 00:00:00 12,4 9,6 41 22 SSW 1010,3 25
14.01.2020 23:00:00 11,9 9,5 29 16 SSW 1010,4 30
14.01.2020 22:00:00 11,1 9,7 26 14 SSW 1011,1 12
14.01.2020 21:00:00 11,9 8,7 34 18 S 1011,2 30
14.01.2020 20:00:00 11,8 8,3 35 19 S 1011,5 30
14.01.2020 19:00:00 11,9 8,2 29 16 S 1011,7 30
14.01.2020 18:00:00 11,8 8,3 31 17 SSW 1012,0 30
14.01.2020 17:00:00 12,2 8,6 29 16 S 1011,9 30
14.01.2020 16:00:00 12,3 8,8 29 16 SSW 1012,0 40
14.01.2020 15:00:00 12,9 9,2 28 15 SSW 1011,9 30
14.01.2020 14:00:00 13,0 9,0 34 18 SSW 1012,6 40
14.01.2020 13:00:00 11,8 8,5 31 17 S 1013,8 40
14.01.2020 12:00:00 11,1 8,3 29 16 S 1014,9 30
14.01.2020 11:00:00 10,8 8,2 29 16 S 1014,8 30
14.01.2020 10:00:00 10,3 8,2 22 12 SSW 1014,9 30
14.01.2020 09:00:00 10,0 8,4 29 16 S 1014,8 30
14.01.2020 08:00:00 9,7 8,8 26 14 SSW 1014,8 15
14.01.2020 07:00:00 9,3 8,8 22 12 SSW 1014,7 20
14.01.2020 06:00:00 9,4 8,6 24 13 SSW 1014,5 4,3
14.01.2020 05:00:00 9,3 8,5 24 13 S 1014,7 14
14.01.2020 04:00:00 9,2 8,7 31 17 S 1015,3 6
14.01.2020 03:00:00 9,2 8,7 24 13 SSW 1015,6 -
14.01.2020 02:00:00 9,4 8,8 29 16 SSW 1015,9 6
14.01.2020 01:00:00 9,2 8,7 31 17 S 1016,5 15
14.01.2020 00:00:00 9,2 8,7 28 15 SSW 1016,7 6
13.01.2020 23:00:00 8,9 8,4 18 10 SSW 1016,7 14
13.01.2020 22:00:00 8,6 8,3 22 12 SSW 1017,1 7
13.01.2020 21:00:00 8,5 7,9 28 15 SSW 1017,4 -

tt = Température de l'air
td = dewpoint
ff = Vitesse du vent
dd = Direction du vent
ppp = reduced air pressure
vv = visibility

stations d'obs. à proximité